Погода в Итуме-Кали

Россия / Чеченская Республика     42°44′10″N   45°34′32″E
темп.,
°C
ветер,
м/с
пор.,
м/с
влажн.,
%
обл.,
%
осадки,
мм/ч
давл.,
гПа
погр.,
м
5 марта, пт
пт500:00−7юз32590 0.0 102430
03:00−7ююз225619 0.0 102324
06:00−6ююз335029 0.0 102122
09:00+1сз005615 0.0 1019139
12:00+3св11610 0.0 1017371
15:00+3св11580 0.0 1016413
18:00−2ююз22730 0.0 101922
21:00−3ююз33490 0.0 102125
6 марта, сб
сб600:00−3ююз33420 0.0 102129
03:00−3ююз33470 0.0 102137
06:00−3ююз33480 0.0 102131
09:00+4юз115541 0.0 101982
12:00+7св11444 0.0 1017692
15:00+6зюз12462 0.0 1014690
18:000ююз445273 0.0 101569
21:00−1ююз444586 0.0 101593
7 марта, вс
вс700:00−1ююз4452100 0.0 101483
03:00−2юз3356100 0.0 101553
06:00−5ссв1195100 0.2 101995
09:00−6св3392100 2.4 1020305
12:00−5ссв3388100 1.1 1019423
15:00−6св3389100 2.0 1020354
18:00−9св2296100 0.6 1022164
21:00−10ссв019497 0.8 1024102
8 марта, пн
пн800:00−10сз018529 0.0 102426
03:00−10ю008214 0.0 102534
06:00−10в01820 0.0 102434
09:00−5св21710 0.0 1022282
12:00−2ссв22729 0.0 1019418
15:00−3ссв328324 0.1 1017367
18:00−7ссв119595 0.1 101868
21:00−7ююз118291 0.1 101929
9 марта, вт
вт900:00−7ююз117776 0.0 101925
03:00−8ююз117270 0.0 101825
06:00−9ююз116617 0.0 101824
09:00−3св11538 0.0 1017363
12:000ссв11570 0.0 1015840
15:000св026213 0.0 1014867
18:00−4ююз236987 0.0 1015116
21:00−5ююз345377 0.0 101795